sat.trackr.live / text

‹ back to catalog

STARLINK-5020

NORAD 55458 · 2023-015K

PAYLOAD ACTIVE UNKNOWN

§ Identity

Operator
Country
US
Launch date
2023-02-02
Launch site
AFETR
Launch vehicle
Mass (kg)
RCS (m²)

Purposes: comms

External: N2YO · Heavens-Above · Gunter

§ Orbital elements

Epoch: 2026-05-25T00:26:09.197664Z

Period
94.27 min
Inclination
43.0016°
Eccentricity
0.0001132
Mean motion
15.27575195 rev/d
Perigee alt
482.3 km
Apogee alt
483.8 km
Semi-major
6,861.2 km
B*
9.4704e-6
RAAN
257.8160°
Arg perigee
273.5989°
Mean anomaly
86.4733°
Rev number
18,239

§ Raw data

STARLINK-50201 55458U 23015K   26145.01816201 -.00000001  00000+0  94704-5 0  99952 55458  43.0016 257.8160 0001132 273.5989  86.4733 15.27575195182393

JSON: /api/v1/satellites/55458 · /tle

For live sub-satellite position, see the globe view (requires WebGL).

§ Visibility from observer

Set your observer location to see the next 7 days of passes ≥ 10°. The values pass through the URL so the page stays shareable.

No JS? Fill the form by hand. The geolocation button needs JavaScript.